EHI
0 0 0 0 0 0 0 0 0 0 0 0 0 0 0 0 0 0 0 0 0 0 0 0 0 0 0 0 0 0 0 0 0 0 0 0 0 0 0 0 0 0 0
0 0 0 0 0 0 0 0 0 0 0 0 0 0 0 0 0 0 0 0 0 0 0 0 0 0 0 0 0 0 0 0 0 0 0 0 0 0 0 0 0 0 0
0 0 0 0 0 0 0 0 0 0 0 0 0 0 0 0 0 0 0 0 0 0 0 0 0 0 0 0 0 0 0 0 0 0 0 0 0 0 0 0 0 0 0
0 0 0 0 0 0 0 0 0 0 0 0 0 0 0 0 0 0 0 0 0 0 0 0 0 0 0 0 0 0 0 0 0 0 0 0 0 0 0 0 0 0 0
0 0 0 0 0 0 0 0 0 0 0 0 0 0 0 0 0 0 0 0 0 0 0 0 0 0 0 0 0 0 0 0 0 0 0 0 0 0 0 0 0 0 0
0 0 0 0 0 0 0 0 0 0 0 0 0 0 0 0 0 0 0 0 0 0 0 0 0 0 0 0 0 0 0 0 0 0 0 0 0 0 0 0 0 0 0
0 0 0 0 0 0 0 0 0 0 0 0 0 0 0 0 0 0 0 0 0 0 0 0 0 0 0 0 0 0 0 0 0 0 0 0 0 0 0 0 0 0 0
0 0 0 0 0 0 0 0 0 0 0 0 0 0 0 0 0 0 0 0 0 0 0 0 0 0 0 0 0 0 0 0 0 0 0 0 0 0 0 0 0 0 0
0 0 0 0 0 0 0 0 0 0 0 0 0 0 0 0 0 0 0 0 0 0 0 0 0 0 0 0 0 0 0 0 0 0 0 0 0 0 0 0 0 0 0
0 0 0 0 0 0 0 0 0 0 0 0 0 0 0 0 0 0 0 0 0 0 0 0 0 0 0 0 0 0 0 0 0 0 0 0 0 0 0 0 0 0 0
0 0 0 0 0 0 0 0 0 0 0 0 0 0 0 0 0 0 0 0 0 0 0 0 0 0 0 0 0 0 0 0 0 0 0 0 0 0 0 0 0 0 0
0 0 0 0 0 0 0 0 0 0 0 0 0 0 0 0 0 0 0 0 0 0 0 0 0 0 0 0 0 0 0 0 0 0 0 0 0 0 0 0 0 0 0
0 0 0 0 0 0 0 0 0 0 0 0 0 0 0 0 0 0 0 0 0 0 0 0 0 0 0 0 0 0 0 0 0 0 0 0 0 0 0 0 0 0 0
0 0 0 0 0 0 0 0 0 0 0 0 0 0 0 0 0 0 0 0 0 0 0 0 0 0 0 0 0 0 0 0 0 0 0 0 0 0 0 0 0 0 0
0 0 0 0 0 0 0 0 0 0 0 0 0 0 0 0 0 0 0 0 0 0 0 0 0 0 0 0 0 0 0 0 0 0 0 0 0 0 0 0 0 0 0
0 0 0 0 0 0 0 0 0 0 0 0 0 0 0 0 0 0 0 0 0 0 0 0 0 0 0 0 0 0 0 0 0 0 0 0 0 0 0 0 0 0 0
0 0 0 0 0 0 0 0 0 0 0 0 0 0 0 0 0 0 0 0 0 0 0 0 0 0 0 0 0 0 0 0 0 0 0 0 0 0 0 0 0 0 0
0 0 0 0 0 0 0 0 0 0 0 0 0 0 0 0 0 0 0 0 0 0 0 0 0 0 0 0 0 0 0 0 0 0 0 0 0 0 0 0 0 0 0
0 0 0 0 0 0 0 0 0 0 0 0 0 0 0 0 0 0 0 0 0 0 0 0 0 0 0 0 0 0 0 0 0 0 0 0 0 0 0 0 0 0 0
0 0 0 0 0 0 0 0 0 0 0 0 0 0 0 0 0 0 0 0 0 0 0 0 0 0 0 0 0 0 0 0 0 0 0 0 0 0 0 0 0 0 0
0 0 0 0 0 0 0 0 0 0 0 0 0 0 0 0 0 0 0 0 0 0 0 0 0 0 0 0 0 0 0 0 0 0 0 0 0 0 0 0 0 0 0
0 0 0 0 0 0 0 0 0 0 0 0 0 0 0 0 0 0 0 0 0 0 0 0 0 0 0 0 0 0 0 0 0 0 0 0 0 0 0 0 0 0 0
0 0 0 0 0 0 0 0 0 0 0 0 0 0 0 0 0 0 0 0 0 0 0 0 0 0 0 0 0 0 0 0 0 0 0 0 0 0 0 0 0 0 0
0 0 0 0 0 0 0 0 0 0 0 0 0 0 0 0 0 0 0 0 0 0 0 0 0 0 0 0 0 0 0 0 0 0 0 0 0 0 0 0 0 0 0
0 0 0 0 0 0 0 0 0 0 0 0 0 0 0 0 0 0 0 0 0 0 0 0 0 0 0 0 0 0 0 0 0 0 0 0 0 0 0 0 0 0 0
0 0 0 0 0 0 0 0 0 0 0 0 0 0 0 0 0 0 0 0 0 0 0 0 0 0 0 0 0 0 0 0 0 0 0 0 0 0 0 0 0 0 0
Wind_Speed
4 3 2 2 2 1 1 1 2 2 2 3 4 4 4 3 3 4 4 3 4 4 3 3 4 3 3 3 2 3 3 4 6 4 1 1 1 2 4 3 3 3 3
4 3 3 2 2 2 2 1 1 1 1 2 2 3 3 3 3 4 4 4 4 4 4 4 4 3 3 3 3 3 3 3 5 6 3 2 2 2 3 4 3 2 3
4 3 3 3 3 2 2 2 1 1 1 0 1 2 2 2 3 3 4 4 4 4 4 4 4 3 4 3 3 3 3 3 3 4 4 2 2 2 3 3 3 3 3
4 3 3 3 3 3 3 2 2 1 1 1 1 1 1 2 2 2 2 3 3 3 3 3 3 3 4 4 3 3 2 3 3 3 3 3 2 2 2 3 4 3 4
4 3 3 3 3 3 3 3 2 1 1 1 1 1 1 1 1 1 2 3 2 2 1 1 2 2 2 3 2 2 2 2 2 3 3 3 3 2 2 2 4 5 4
3 3 4 4 3 3 3 3 2 2 1 1 1 1 1 1 1 0 1 1 1 1 1 1 0 1 0 1 1 1 1 2 3 3 3 4 4 3 3 3 3 4 4
3 3 3 3 3 3 3 3 2 2 2 1 1 0 1 1 1 0 1 1 1 1 1 1 0 0 0 0 0 0 0 1 2 3 4 4 3 3 3 3 3 4 5
3 3 3 3 4 3 3 3 3 2 2 2 1 1 0 1 1 1 1 1 1 0 0 1 1 0 1 0 0 1 1 1 2 1 2 3 3 2 2 3 4 4 4
3 4 4 4 4 4 3 3 2 2 2 2 1 1 1 1 1 2 2 1 1 1 1 1 1 0 1 1 0 1 1 2 3 3 2 3 4 4 3 1 1 2 4
4 4 4 4 4 4 4 3 2 2 2 1 1 1 1 1 1 2 2 1 1 1 1 1 1 1 2 1 0 0 1 1 1 2 3 4 3 3 4 1 1 2 3
4 4 4 4 4 4 3 2 2 1 1 1 1 1 1 1 0 1 2 1 1 0 0 1 1 2 2 2 1 1 1 1 1 1 1 2 2 2 2 2 2 2 3
3 4 4 4 3 2 2 2 1 1 1 1 1 1 1 1 1 1 1 1 1 0 0 1 1 2 2 2 2 2 2 2 1 1 1 1 2 2 3 3 3 3 3
3 4 4 3 3 2 1 1 1 1 1 1 1 1 1 1 1 1 1 1 1 0 0 0 1 1 2 2 3 4 2 1 0 1 1 2 2 3 3 2 2 2 3
3 4 3 2 2 2 1 1 1 1 1 2 2 2 1 1 1 0 0 0 1 1 1 1 1 2 3 3 3 3 2 1 0 1 1 2 2 2 2 2 2 3 3
3 3 3 2 2 2 2 2 2 2 2 3 2 2 2 2 2 2 1 1 1 1 1 1 1 1 2 2 2 1 1 1 1 1 1 2 2 2 2 2 2 2 2
3 3 2 2 2 2 2 2 3 3 3 3 3 2 2 3 2 2 1 0 1 2 2 1 0 0 0 1 1 1 1 1 1 1 1 1 2 2 3 2 2 2 3
4 4 3 2 2 2 2 2 2 3 3 3 2 2 2 2 1 1 1 1 2 3 2 1 1 0 0 1 1 1 1 1 1 1 1 2 2 2 2 2 2 2 3
4 4 3 3 2 2 2 2 2 2 2 2 2 2 3 2 1 1 1 2 2 2 1 0 0 0 0 1 1 1 1 1 1 1 1 2 2 2 2 3 3 3 4
4 3 3 2 2 2 2 2 2 2 2 2 2 2 3 2 1 1 2 2 1 0 0 0 1 1 1 1 1 1 1 1 2 2 2 2 2 2 2 3 3 4 3
3 4 3 2 2 2 2 2 2 2 2 2 2 2 1 1 0 1 1 1 1 1 1 1 1 1 1 1 1 1 1 2 2 2 2 2 2 2 3 4 3 3 3
2 3 3 2 2 2 2 2 2 2 2 2 2 2 2 1 1 1 0 0 1 1 1 1 1 2 1 1 1 2 2 2 2 2 2 3 2 3 3 3 3 4 4
2 2 2 2 2 2 2 2 2 2 2 2 2 2 3 1 1 1 1 1 1 1 2 2 2 2 2 2 2 3 3 3 3 3 3 3 3 3 3 3 3 3 3
2 2 2 2 2 2 2 2 2 2 2 2 2 2 1 1 1 2 2 2 1 1 1 2 2 2 2 2 3 3 4 4 4 4 3 3 3 3 3 3 4 4 4
2 2 2 2 2 2 2 2 2 2 3 3 2 2 2 2 2 2 2 2 2 2 2 2 3 4 4 3 3 3 4 5 4 4 5 5 4 4 3 4 4 4 4
2 2 2 2 2 2 2 2 2 3 3 3 3 3 2 2 2 2 2 2 2 3 3 3 3 3 5 6 5 5 7 8 7 5 4 4 5 5 4 5 4 4 4
2 2 2 2 2 2 3 3 3 3 3 2 3 3 3 3 3 3 2 2 3 3 3 3 4 5 5 5 7 8 8 9 8 7 4 4 4 4 4 4 4 4 4
Wind_Direction
2 357 4 356 342 340 316 249 244 246 226 217 217 209 208 213 215 212 218 213 213 218 216 217 229 231 239 242 236 236 241 243 260 272 259 279 283 306 315 308 298 297 310
357 360 2 4 9 359 335 320 329 306 279 237 220 212 208 209 208 207 217 214 216 220 220 218 229 223 234 242 235 240 242 238 247 266 277 283 273 291 305 307 312 318 309
3 3 3 1 2 348 333 336 349 343 321 281 216 214 207 203 208 213 213 215 219 223 220 218 226 218 230 237 235 239 247 252 247 256 272 286 285 318 319 311 311 309 316
2 3 357 345 338 333 332 335 338 336 323 302 256 238 231 222 211 210 205 215 222 231 231 226 225 218 227 231 231 237 241 247 253 256 266 281 292 311 317 310 313 316 311
356 356 345 339 340 341 338 334 335 340 327 317 340 330 296 254 237 218 208 204 209 221 233 237 229 213 228 226 224 227 230 240 251 260 264 277 280 308 302 302 300 312 304
345 339 341 344 343 340 330 329 331 329 336 358 354 343 334 322 359 153 177 190 195 199 210 211 184 154 165 180 193 216 230 241 250 253 260 269 281 290 296 302 308 316 305
332 331 336 333 331 327 326 330 324 320 328 318 306 336 315 342 14 27 112 146 144 188 193 171 125 56 158 190 168 139 295 303 272 260 264 269 278 291 295 291 288 287 283
323 325 330 328 321 324 327 324 323 325 313 302 309 307 316 352 29 44 76 75 81 99 98 127 125 18 19 26 37 61 40 3 331 296 278 290 301 299 276 273 276 287 286
315 318 321 318 314 315 311 309 309 312 306 300 300 285 282 332 48 56 68 73 77 35 36 52 76 302 5 12 20 2 15 15 31 33 3 346 340 336 332 332 314 310 299
305 312 314 310 303 298 294 296 299 289 286 293 300 297 281 303 65 76 86 105 101 37 25 29 26 11 4 7 296 226 278 312 3 13 8 356 349 340 343 317 268 261 282
311 310 309 307 301 295 295 294 288 285 289 288 289 322 319 316 75 95 102 117 148 139 324 342 354 4 5 6 0 329 289 318 350 3 350 348 349 342 335 329 303 261 255
308 303 302 303 299 298 299 303 301 281 264 281 299 316 327 339 37 61 70 81 87 144 262 306 326 3 8 16 17 30 39 37 29 356 336 328 333 331 320 313 308 291 269
302 295 296 299 299 293 280 284 297 284 262 266 260 272 298 319 320 36 64 72 70 49 273 310 342 18 23 26 43 46 40 48 57 344 322 313 312 306 310 313 315 310 296
285 287 287 288 295 298 288 264 258 252 246 245 243 252 268 286 302 326 253 167 113 77 58 49 55 64 52 44 36 31 28 23 2 308 311 311 315 314 318 324 317 333 326
274 277 278 272 267 274 277 268 267 259 244 244 240 237 235 249 262 273 254 237 196 157 103 64 34 30 30 24 22 28 26 31 15 335 320 318 320 321 319 328 316 321 302
260 262 261 263 260 261 277 295 283 276 276 265 254 255 261 260 268 258 252 217 168 143 108 126 112 64 6 335 333 337 345 346 336 329 312 300 303 307 310 318 317 300 292
248 255 256 255 251 250 256 267 290 303 289 278 274 280 283 269 260 254 237 140 103 98 87 116 144 186 283 295 297 306 308 313 315 299 292 291 291 291 294 300 303 300 296
250 248 245 243 243 239 236 241 248 257 279 295 305 303 306 287 277 262 144 98 73 59 70 100 256 267 278 282 290 295 301 317 311 289 277 279 280 284 290 292 292 291 292
247 246 243 240 237 237 233 226 229 241 252 275 317 319 322 312 349 39 79 91 144 209 332 265 257 260 271 275 281 283 282 287 290 286 278 274 274 272 277 282 287 289 284
247 246 239 233 231 229 225 218 217 222 235 244 255 275 307 23 12 350 43 103 153 207 231 245 256 253 251 254 266 271 278 278 282 281 280 282 276 264 268 277 280 283 279
242 238 232 231 230 225 222 221 216 213 226 241 254 253 239 212 208 222 230 209 211 221 229 241 248 249 248 246 248 254 258 266 268 268 272 273 270 269 269 270 271 271 277
232 232 228 228 231 228 224 219 214 215 222 236 262 272 259 219 201 223 232 240 239 235 229 227 239 243 237 232 235 242 250 255 258 259 263 266 266 266 268 269 270 272 272
223 228 236 234 228 221 219 214 211 211 218 228 241 246 240 220 224 232 239 246 251 251 243 230 239 249 247 245 242 241 244 249 249 246 253 262 265 264 263 264 266 268 268
217 219 227 233 229 225 220 217 215 215 216 224 227 224 225 223 228 237 241 245 249 253 249 243 243 249 255 260 255 251 251 255 252 247 242 248 258 263 262 261 259 256 260
218 217 220 223 223 226 225 223 222 220 222 225 224 228 228 227 234 241 241 241 244 251 253 251 250 253 256 259 260 260 262 266 261 248 243 243 250 253 254 256 255 254 253
221 219 222 220 222 222 220 225 227 225 227 230 231 232 231 233 239 242 241 239 244 252 257 255 249 253 260 264 264 266 266 264 259 250 236 235 242 248 246 250 250 249 251